Regional Weather Roundup
Issued by NWS

Home | Current Version | Previous Version | Text Only | Print | Product List | Glossary Off
Versions: 1 2 3 4 5 6 7 8 9 10 11 12 13 14 15 16 17 18 19 20 21 22 23 24 25 26 27 28 29 30 31 32 33 34 35 36 37 38 39 40 41 42 43 44 45 46 47 48 49 50

000
ASUS43 KIND 210509
RWRIN

WEATHER ROUNDUP FOR INDIANA
NATIONAL WEATHER SERVICE INDIANAPOLIS IN
100 AM EDT SUN SEP 21 2014

NOTE: "FAIR" INDICATES FEW OR NO CLOUDS BELOW 12,000 FEET WITH NO
SIGNIFICANT WEATHER AND/OR OBSTRUCTIONS TO VISIBILITY.

* - STATION DOES NOT REPORT WEATHER SUCH AS PRECIPITATION OR FOG.

+ - STATION NOT QUALITY CONTROLLED BY THE NATIONAL WEATHER SERVICE.
    USE DATA WITH CAUTION...ESPECIALLY DEWPOINT AND RELATIVE
    HUMIDITY OBSERVATIONS.

INZ001>003-010>013-019-020-210600-
NORTHWEST INDIANA

CITY           SKY/WX    TMP DP  RH WIND       PRES   REMARKS
GARY /AIRPORT/ CLEAR     71  69  93 S6        29.75F FOG
KNOX *+        CLOUDY    67  64  90 SW9       29.77F
LA PORTE +     CLOUDY    65  65 100 SW8       29.77F FOG
MICHIGAN CITY+ PTCLDY    66  66 100 S8        29.74F
MONTICELLO +   LGT RAIN  68  67  98 SW8       29.80F
RENSSELAER +   PTCLDY    68  68 100 SW7       29.80F FOG
VALPARAISO     PTCLDY    66  65  96 SW9       29.78F

$$

LMZ046-743>745-210600-
SOUTHERN LAKE MICHIGAN

STATION/POSITION TIME  TEMP WIND        PRES
                       AIR  DIR/SP/G
                 (UTC) (F)  (DEG/KT/KT) (MB)
MICHIGAN CITY    0500   69  160/ 16/ 23   N/A

$$

INZ004-005-014>016-021>024-210600-
NORTH CENTRAL INDIANA

CITY           SKY/WX    TMP DP  RH WIND       PRES   REMARKS
GOSHEN         MOCLDY   N/A N/A N/A SW12      29.78F
LOGANSPORT +   HVY RAIN  68  64  88 SW8       29.82F
PERU/GRISSOM   MOCLDY    68  68 100 SW12      29.82F
ROCHESTER +    MOCLDY    68  68 100 S6        29.81F
SOUTH BEND     MOCLDY    67  65  93 SW9       29.76F
WARSAW +       CLOUDY    64  64 100 SW5       29.80F

$$

INZ006>009-017-018-025>027-210600-
NORTHEAST INDIANA

CITY           SKY/WX    TMP DP  RH WIND       PRES   REMARKS
ANGOLA *+      MOCLDY    66  57  72 SW9       29.79F
AUBURN +       PTCLDY    64  63  94 SW6       29.82F
FORT WAYNE     LGT RAIN  66  64  93 W3        29.83F
HUNTINGTON +   CLOUDY    65  65  98 SW5       29.82F

$$

INZ028-029-035-036-043>045-051>053-210600-
WEST CENTRAL INDIANA

CITY           SKY/WX    TMP DP  RH WIND       PRES   REMARKS
GREENCASTLE +  CLOUDY    70  66  88 S5        29.87F
LAFAYETTE      LGT RAIN  69  68  96 W8        29.81F
TERRE HAUTE    CLOUDY    74  66  76 SW12      29.86F

$$

INZ030>032-037>040-046>048-054>057-064-065-210600-
CENTRAL INDIANA

CITY           SKY/WX    TMP DP  RH WIND       PRES   REMARKS
CP ATTERBURY + MOCLDY    72  64  78 SW6       29.89F
FRANKFORT +    TSTM     N/A N/A N/A W12       29.85S
GREENWOOD *+   PTCLDY    72  68  88 SW8       29.88
INDIANAPOLIS   MOCLDY    71  66  84 SW13      29.86F
-EAGLE CREEK   CLOUDY    71  65  81 SW9       29.85F
KOKOMO *+      CLOUDY    68  64  88 SW7       29.84R
MARION +       LGT RAIN  65  65  99 S3        29.84F
MT COMFORT *+  MOCLDY    68  66  94 S7        29.87F
SHELBYVILLE    PTCLDY    72  65  78 S13       29.87F
ZIONSVILLE +   CLOUDY    71  65  81 SW13      29.86F THUNDER

$$

INZ033-034-041-042-049-050-058-059-210600-
EAST CENTRAL INDIANA

CITY           SKY/WX    TMP DP  RH WIND       PRES   REMARKS
MUNCIE         MOCLDY    70  65  84 S8        29.84F

$$

INZ060-061-067>069-081>083-085>088-210600-
SOUTHWEST INDIANA

CITY           SKY/WX    TMP DP  RH WIND       PRES   REMARKS
EVANSVILLE     CLEAR     73  66  78 SW9       29.93F
WASHINGTON +   PTCLDY    73  68  82 SW9G16    29.90F

$$

INZ062-063-066-070>080-084-089>092-210600-
SOUTH CENTRAL AND SOUTHEAST INDIANA

CITY           SKY/WX    TMP DP  RH WIND       PRES   REMARKS
BLOOMINGTON    PTCLDY    73  65  75 SW9       29.90F
SEYMOUR +      MOCLDY    68  66  94 S6        29.91

$$



USA.gov is the U.S. government's official web portal to all federal, state and local government web resources and services.